カタログに戻る

ARIANE 44LP DEB

運用中HEO
NORAD 27047·DEBRIS·🇫🇷 France

打ち上げ Aug 8, 1989 から Guiana Space Centre

Loading…

次のパス (今後24時間)

TLE

最新Source: Space-Track

元期: Sep 11, 2026, 17:40 UTC

1 27047U 89062K   26254.73624053  .00000191  00000-0  14191-2 0  9993
2 27047   8.8407 161.9770 6785398 199.5745 110.7195  2.79178581 15925

AllMySatでARIANE 44LP DEBをリアルタイム追跡

Download on the App Store